Details for Delta Airlines at KLGA




Go Back


Latest METAR
Local Time

KLGA 170851Z 24006KT 10SM BKN250 28/21 A3006 RMK AO2 SLP179 T02780206 56003
17/08/2018, 05:02:16

Description
Results
Delta Airlines Logo
Number of Pilots based at KLGA
0 Pilots Based here
Number of Delta Airlines Flights Departed from KLGA
3 Flights Departed
Number of Delta Airlines Flights Arrived at KLGA
4 Flights Arrived
Number of Delta Airlines Schedules Departing from KLGA
297 Schedules
Number of Delta Airlines Schedules Arriving at KLGA
292 Schedules
Number of Delta Airlines Schedules Departing from KLGA availible today
192 Schedules Today
Number of Delta Airlines Schedules Arriving at KLGA availible today
175 Schedules Today
Average Landing Rate at KLGA
-217 fpm
Delta Airlines Average Landing Rate at KLGA
-203 fpm
Total Fuel Purchased at KLGA by Delta Airlines
3,779.33 kgs / 8,331.91 lbs

Pilots Based at KLGA


Pilot ID
Pilot Name
Pilot Rank
No. of Flights
No. of Flying Hours
There are no pilots assigned to this hub!   Will you be the first?
Content